| time (UTC) | temp C | wind direction | speed KPH | gust KPH | rain 1hr cm | rain 24hr cm | rain mn cm | humidity % | barometer mb |
| 20260505152542 | 7 | 324 | 4.8 | 8.0 | 0.00 | 0.00 | 0.00 | 93 | 1015.0 |
| 20260505152047 | 7 | 316 | 4.8 | 8.0 | 0.00 | 0.00 | 0.00 | 94 | 1015.0 |
| 20260505151552 | 7 | 315 | 4.8 | 8.0 | 0.00 | 0.00 | 0.00 | 94 | 1014.9 |
| 20260505151043 | 7 | 323 | 3.2 | 8.0 | 0.00 | 0.00 | 0.00 | 93 | 1014.9 |
| 20260505150545 | 7 | 319 | 3.2 | 6.4 | 0.00 | 0.00 | 0.00 | 93 | 1014.7 |
| 20260505140544 | 7 | 311 | 8.0 | 12.9 | 0.00 | 0.00 | 0.00 | 94 | 1014.3 |
| 20260505140105 | 7 | 298 | 4.8 | 11.3 | 0.00 | 0.00 | 0.00 | 94 | 1014.3 |
| 20260505124611 | 7 | 311 | 8.0 | 12.9 | 0.00 | 0.00 | 0.00 | 93 | 1014.2 |
| 20260505124047 | 7 | 315 | 8.0 | 12.9 | 0.00 | 0.00 | 0.00 | 92 | 1014.1 |
| 20260505123543 | 7 | 310 | 8.0 | 12.9 | 0.00 | 0.00 | 0.00 | 92 | 1014.2 |
| 20260505123106 | 7 | 306 | 4.8 | 8.0 | 0.00 | 0.00 | 0.00 | 92 | 1014.1 |
| 20260505122543 | 7 | 316 | 3.2 | 6.4 | 0.00 | 0.00 | 0.00 | 92 | 1014.1 |
| 20260505122043 | 7 | 315 | 3.2 | 6.4 | 0.00 | 0.00 | 0.00 | 92 | 1014.1 |
| 20260505121549 | 7 | 315 | 1.6 | 6.4 | 0.00 | 0.00 | 0.00 | 92 | 1014.1 |
| 20260505121043 | 7 | 315 | 3.2 | 8.0 | 0.00 | 0.00 | 0.00 | 92 | 1014.2 |
| 20260505120543 | 7 | 311 | 3.2 | 8.0 | 0.00 | 0.00 | 0.00 | 92 | 1014.2 |
| 20260505120055 | 7 | 312 | 3.2 | 8.0 | 0.00 | 0.00 | 0.00 | 92 | 1014.2 |
| 20260505115543 | 7 | 317 | 4.8 | 8.0 | 0.00 | 0.00 | 0.00 | 92 | 1014.2 |
| 20260505115043 | 7 | 306 | 4.8 | 9.7 | 0.00 | 0.00 | 0.00 | 92 | 1014.3 |
| 20260505114549 | 7 | 321 | 4.8 | 14.5 | 0.00 | 0.00 | 0.00 | 91 | 1014.3 |
| 20260505114046 | 7 | 315 | 6.4 | 14.5 | 0.00 | 0.00 | 0.00 | 92 | 1014.1 |
| 20260505113545 | 7 | 304 | 9.7 | 14.5 | 0.00 | 0.00 | 0.00 | 92 | 1014.2 |
| 20260505113101 | 7 | 314 | 9.7 | 14.5 | 0.00 | 0.00 | 0.00 | 91 | 1014.3 |
| 20260505112544 | 7 | 315 | 9.7 | 16.1 | 0.00 | 0.00 | 0.00 | 91 | 1014.3 |
| 20260505112045 | 7 | 324 | 9.7 | 16.1 | 0.00 | 0.00 | 0.00 | 91 | 1014.2 |
| 20260505111553 | 7 | 321 | 8.0 | 12.9 | 0.00 | 0.00 | 0.00 | 91 | 1014.2 |
| 20260505111041 | 7 | 317 | 8.0 | 12.9 | 0.00 | 0.00 | 0.00 | 91 | 1014.1 |
| 20260505110544 | 7 | 316 | 8.0 | 12.9 | 0.00 | 0.00 | 0.00 | 91 | 1014.1 |
| 20260505102043 | 7 | 316 | 8.0 | 14.5 | 0.00 | 0.00 | 0.00 | 95 | 1014.2 |
| 20260505101549 | 7 | 311 | 8.0 | 14.5 | 0.00 | 0.00 | 0.00 | 95 | 1014.3 |
| 20260505101044 | 7 | 312 | 8.0 | 12.9 | 0.00 | 0.00 | 0.00 | 95 | 1014.3 |
| 20260505100545 | 7 | 308 | 8.0 | 11.3 | 0.00 | 0.00 | 0.00 | 95 | 1014.4 |
| 20260505100210 | 7 | 314 | 6.4 | 9.7 | 0.00 | 0.00 | 0.00 | 95 | 1014.4 |
| 20260505095543 | 7 | 311 | 6.4 | 8.0 | 0.00 | 0.00 | 0.00 | 95 | 1014.4 |
| 20260505095043 | 7 | 312 | 4.8 | 8.0 | 0.00 | 0.00 | 0.00 | 95 | 1014.4 |
| 20260505094553 | 7 | 315 | 4.8 | 11.3 | 0.00 | 0.00 | 0.00 | 95 | 1014.4 |
| 20260505094044 | 7 | 311 | 6.4 | 11.3 | 0.00 | 0.00 | 0.00 | 94 | 1014.4 |
| 20260505093543 | 7 | 314 | 6.4 | 9.7 | 0.00 | 0.00 | 0.00 | 94 | 1014.3 |
| 20260505093054 | 7 | 316 | 6.4 | 11.3 | 0.00 | 0.00 | 0.00 | 94 | 1014.4 |
| 20260505092545 | 7 | 306 | 6.4 | 11.3 | 0.00 | 0.00 | 0.00 | 95 | 1014.3 |
| 20260505092044 | 7 | 304 | 4.8 | 11.3 | 0.00 | 0.00 | 0.00 | 94 | 1014.4 |
| 20260505091606 | 7 | 307 | 4.8 | 8.0 | 0.00 | 0.00 | 0.00 | 94 | 1014.5 |
| 20260505091045 | 7 | 318 | 6.4 | 8.0 | 0.00 | 0.00 | 0.00 | 94 | 1014.6 |
| 20260505090544 | 7 | 317 | 6.4 | 12.9 | 0.00 | 0.00 | 0.00 | 94 | 1014.7 |
| 20260505090057 | 7 | 321 | 6.4 | 12.9 | 0.00 | 0.00 | 0.00 | 94 | 1014.7 |
| 20260505085545 | 7 | 312 | 3.2 | 6.4 | 0.00 | 0.00 | 0.00 | 94 | 1014.7 |
| 20260505085044 | 7 | 304 | 3.2 | 8.0 | 0.00 | 0.00 | 0.00 | 94 | 1014.7 |
| 20260505084553 | 7 | 311 | 4.8 | 8.0 | 0.00 | 0.00 | 0.00 | 94 | 1015.0 |
| 20260505084043 | 7 | 306 | 4.8 | 8.0 | 0.00 | 0.00 | 0.00 | 94 | 1014.9 |
| 20260505083543 | 7 | 328 | 4.8 | 8.0 | 0.00 | 0.00 | 0.00 | 94 | 1014.9 |
| 20260505083056 | 7 | 317 | 3.2 | 8.0 | 0.00 | 0.00 | 0.00 | 94 | 1014.9 |
| 20260505082547 | 7 | 290 | 3.2 | 11.3 | 0.00 | 0.00 | 0.00 | 94 | 1014.9 |
| 20260505082044 | 7 | 311 | 4.8 | 12.9 | 0.00 | 0.00 | 0.00 | 93 | 1014.9 |
| 20260505081558 | 7 | 309 | 4.8 | 12.9 | 0.00 | 0.00 | 0.00 | 93 | 1014.9 |
| 20260505081044 | 7 | 302 | 6.4 | 12.9 | 0.00 | 0.00 | 0.00 | 93 | 1015.1 |
| 20260505080543 | 7 | 309 | 6.4 | 12.9 | 0.00 | 0.00 | 0.00 | 93 | 1015.1 |
| 20260505080108 | 7 | 312 | 4.8 | 12.9 | 0.00 | 0.00 | 0.00 | 93 | 1015.1 |
| 20260505075543 | 7 | 311 | 6.4 | 12.9 | 0.00 | 0.00 | 0.00 | 93 | 1015.2 |
| 20260505075043 | 7 | 303 | 4.8 | 12.9 | 0.00 | 0.00 | 0.00 | 93 | 1015.2 |
| 20260505074552 | 7 | 308 | 6.4 | 14.5 | 0.00 | 0.00 | 0.00 | 93 | 1015.2 |
| 20260505074043 | 7 | 310 | 6.4 | 14.5 | 0.00 | 0.00 | 0.00 | 93 | 1015.1 |
| 20260505073543 | 7 | 321 | 9.7 | 14.5 | 0.00 | 0.00 | 0.00 | 93 | 1015.1 |
| 20260505073051 | 7 | 311 | 6.4 | 14.5 | 0.00 | 0.00 | 0.00 | 94 | 1015.2 |
| 20260505072546 | 8 | 321 | 9.7 | 14.5 | 0.00 | 0.00 | 0.00 | 94 | 1015.1 |
| 20260505072046 | 8 | 329 | 6.4 | 14.5 | 0.00 | 0.00 | 0.00 | 94 | 1015.1 |
| 20260505071558 | 8 | 311 | 8.0 | 14.5 | 0.00 | 0.00 | 0.00 | 94 | 1015.0 |
| 20260505071044 | 8 | 323 | 8.0 | 14.5 | 0.00 | 0.00 | 0.00 | 94 | 1015.0 |
| 20260505070544 | 8 | 317 | 8.0 | 14.5 | 0.00 | 0.00 | 0.00 | 94 | 1014.8 |
| 20260505070052 | 8 | 320 | 8.0 | 14.5 | 0.00 | 0.00 | 0.00 | 93 | 1014.9 |
| 20260505065543 | 8 | 310 | 6.4 | 12.9 | 0.00 | 0.00 | 0.00 | 93 | 1015.0 |
| 20260505065043 | 8 | 320 | 6.4 | 12.9 | 0.00 | 0.00 | 0.00 | 93 | 1015.0 |
| 20260505064548 | 8 | 302 | 6.4 | 12.9 | 0.00 | 0.00 | 0.00 | 94 | 1015.0 |
| 20260505064046 | 8 | 307 | 8.0 | 11.3 | 0.00 | 0.00 | 0.00 | 94 | 1015.0 |
| 20260505063543 | 8 | 317 | 6.4 | 12.9 | 0.00 | 0.00 | 0.00 | 94 | 1014.9 |
| 20260505063114 | 8 | 319 | 4.8 | 12.9 | 0.00 | 0.00 | 0.00 | 94 | 1014.8 |
| 20260505062540 | 8 | 319 | 4.8 | 12.9 | 0.00 | 0.00 | 0.00 | 94 | 1014.8 |
| 20260505062043 | 8 | 319 | 4.8 | 9.7 | 0.00 | 0.00 | 0.00 | 93 | 1014.7 |
| 20260505061620 | 8 | 307 | 4.8 | 8.0 | 0.00 | 0.00 | 0.00 | 93 | 1014.7 |
| 20260505061044 | 8 | 309 | 3.2 | 6.4 | 0.00 | 0.00 | 0.00 | 93 | 1014.8 |
| 20260505060546 | 8 | 312 | 3.2 | 6.4 | 0.00 | 0.00 | 0.00 | 93 | 1014.7 |
| 20260505055544 | 8 | 317 | 0.0 | 6.4 | 0.00 | 0.00 | 0.00 | 93 | 1015.0 |
| 20260505055046 | 8 | 317 | 3.2 | 6.4 | 0.00 | 0.00 | 0.00 | 93 | 1015.1 |
| 20260505054555 | 8 | 317 | 3.2 | 8.0 | 0.00 | 0.00 | 0.00 | 92 | 1015.0 |
| 20260505054040 | 8 | 323 | 4.8 | 8.0 | 0.00 | 0.00 | 0.00 | 92 | 1015.1 |
| 20260505053543 | 8 | 309 | 3.2 | 8.0 | 0.00 | 0.00 | 0.00 | 92 | 1015.3 |
| 20260505053053 | 8 | 315 | 3.2 | 9.7 | 0.00 | 0.00 | 0.00 | 92 | 1015.3 |
| 20260505052543 | 8 | 317 | 4.8 | 9.7 | 0.00 | 0.00 | 0.00 | 92 | 1015.3 |
| 20260505052043 | 8 | 313 | 3.2 | 12.9 | 0.00 | 0.00 | 0.00 | 92 | 1015.3 |
| 20260505051609 | 8 | 321 | 6.4 | 12.9 | 0.00 | 0.00 | 0.00 | 92 | 1015.4 |
| 20260505051043 | 8 | 312 | 6.4 | 12.9 | 0.00 | 0.00 | 0.00 | 92 | 1015.4 |
| 20260505050543 | 8 | 313 | 4.8 | 11.3 | 0.00 | 0.00 | 0.00 | 93 | 1015.4 |
| 20260505041551 | 8 | 311 | 4.8 | 12.9 | 0.00 | 0.00 | 0.00 | 92 | 1015.1 |
| 20260505041043 | 8 | 311 | 6.4 | 12.9 | 0.00 | 0.00 | 0.00 | 92 | 1015.1 |
| 20260505040542 | 8 | 320 | 8.0 | 14.5 | 0.00 | 0.00 | 0.00 | 91 | 1015.0 |
| 20260505040049 | 8 | 309 | 8.0 | 14.5 | 0.00 | 0.00 | 0.00 | 91 | 1015.0 |
| 20260505035540 | 8 | 318 | 9.7 | 14.5 | 0.00 | 0.00 | 0.00 | 91 | 1014.9 |
| 20260505035043 | 8 | 311 | 6.4 | 12.9 | 0.00 | 0.00 | 0.00 | 91 | 1014.8 |
| 20260505034548 | 8 | 314 | 6.4 | 12.9 | 0.00 | 0.00 | 0.00 | 90 | 1014.7 |
| 20260505034044 | 8 | 321 | 4.8 | 9.7 | 0.00 | 0.00 | 0.00 | 90 | 1014.5 |
| 20260505033544 | 8 | 311 | 4.8 | 11.3 | 0.00 | 0.00 | 0.00 | 89 | 1014.6 |
| 20260505033046 | 8 | 327 | 4.8 | 11.3 | 0.00 | 0.00 | 0.00 | 89 | 1014.6 |
| 20260505032543 | 8 | 313 | 4.8 | 11.3 | 0.00 | 0.00 | 0.00 | 88 | 1014.6 |
| 20260505032046 | 8 | 320 | 4.8 | 8.0 | 0.00 | 0.00 | 0.00 | 88 | 1014.5 |
| 20260505031555 | 8 | 309 | 4.8 | 11.3 | 0.00 | 0.00 | 0.00 | 88 | 1014.5 |
| 20260505031044 | 8 | 307 | 4.8 | 11.3 | 0.00 | 0.00 | 0.00 | 88 | 1014.6 |
| 20260505030545 | 8 | 315 | 3.2 | 8.0 | 0.00 | 0.00 | 0.00 | 88 | 1014.6 |
| 20260505030048 | 9 | 315 | 4.8 | 9.7 | 0.00 | 0.00 | 0.00 | 88 | 1014.6 |
| 20260505025545 | 9 | 322 | 4.8 | 9.7 | 0.00 | 0.00 | 0.00 | 88 | 1014.6 |
| 20260505025045 | 9 | 317 | 3.2 | 8.0 | 0.00 | 0.00 | 0.00 | 87 | 1014.5 |
| 20260505024553 | 9 | 319 | 4.8 | 11.3 | 0.00 | 0.00 | 0.00 | 86 | 1014.4 |
| 20260505024045 | 9 | 298 | 4.8 | 12.9 | 0.00 | 0.00 | 0.00 | 87 | 1014.4 |
| 20260505023544 | 9 | 311 | 4.8 | 14.5 | 0.00 | 0.00 | 0.00 | 86 | 1014.6 |
| 20260505023051 | 9 | 303 | 6.4 | 16.1 | 0.00 | 0.00 | 0.00 | 86 | 1014.5 |
| 20260505022543 | 9 | 294 | 8.0 | 16.1 | 0.00 | 0.00 | 0.00 | 85 | 1014.5 |
| 20260505022043 | 9 | 313 | 6.4 | 16.1 | 0.00 | 0.00 | 0.00 | 85 | 1014.6 |
| 20260505021552 | 10 | 309 | 9.7 | 16.1 | 0.00 | 0.00 | 0.00 | 85 | 1014.4 |
| 20260505021044 | 10 | 289 | 8.0 | 16.1 | 0.00 | 0.00 | 0.00 | 85 | 1014.3 |
| 20260505020544 | 10 | 307 | 8.0 | 14.5 | 0.00 | 0.00 | 0.00 | 84 | 1014.4 |
| 20260505020059 | 10 | 319 | 8.0 | 16.1 | 0.00 | 0.00 | 0.00 | 84 | 1014.5 |
| 20260505015543 | 10 | 312 | 8.0 | 16.1 | 0.00 | 0.00 | 0.00 | 84 | 1014.6 |
| 20260505015047 | 10 | 310 | 8.0 | 16.1 | 0.00 | 0.00 | 0.00 | 84 | 1014.5 |
| 20260505014552 | 10 | 305 | 6.4 | 12.9 | 0.00 | 0.00 | 0.00 | 84 | 1014.5 |
| 20260505014043 | 10 | 321 | 6.4 | 12.9 | 0.00 | 0.00 | 0.00 | 84 | 1014.6 |
| 20260505013543 | 11 | 300 | 3.2 | 12.9 | 0.00 | 0.00 | 0.00 | 83 | 1014.6 |
| 20260505013103 | 11 | 326 | 6.4 | 11.3 | 0.00 | 0.00 | 0.00 | 83 | 1014.6 |
| 20260505012543 | 11 | 292 | 4.8 | 8.0 | 0.00 | 0.00 | 0.00 | 82 | 1014.7 |
| 20260505012044 | 11 | 303 | 4.8 | 8.0 | 0.00 | 0.00 | 0.00 | 82 | 1014.7 |
| 20260505011545 | 11 | 304 | 4.8 | 8.0 | 0.00 | 0.00 | 0.00 | 81 | 1014.9 |
| 20260505011044 | 11 | 312 | 4.8 | 8.0 | 0.00 | 0.00 | 0.00 | 81 | 1014.7 |
| 20260505010543 | 11 | 305 | 3.2 | 8.0 | 0.00 | 0.00 | 0.00 | 81 | 1014.7 |
| 20260505010110 | 11 | 298 | 1.6 | 8.0 | 0.00 | 0.00 | 0.00 | 82 | 1014.8 |
| 20260505005543 | 11 | 309 | 3.2 | 11.3 | 0.00 | 0.00 | 0.00 | 82 | 1014.9 |
| 20260505005043 | 11 | 328 | 3.2 | 11.3 | 0.00 | 0.00 | 0.00 | 81 | 1015.0 |
| 20260505004548 | 11 | 312 | 1.6 | 8.0 | 0.00 | 0.00 | 0.00 | 82 | 1015.1 |
| 20260505004042 | 11 | 313 | 3.2 | 12.9 | 0.00 | 0.00 | 0.00 | 82 | 1015.0 |
| 20260505003545 | 11 | 306 | 3.2 | 12.9 | 0.00 | 0.00 | 0.00 | 82 | 1015.0 |
| 20260505003054 | 11 | 313 | 6.4 | 12.9 | 0.00 | 0.00 | 0.00 | 83 | 1015.0 |
| 20260505002543 | 11 | 292 | 4.8 | 12.9 | 0.00 | 0.00 | 0.00 | 83 | 1015.1 |
| 20260505002043 | 11 | 310 | 4.8 | 12.9 | 0.00 | 0.00 | 0.00 | 83 | 1015.1 |
| 20260505001553 | 11 | 318 | 4.8 | 11.3 | 0.00 | 0.00 | 0.00 | 83 | 1015.1 |
| 20260505001046 | 10 | 327 | 3.2 | 11.3 | 0.00 | 0.00 | 0.00 | 84 | 1015.0 |
| 20260505000543 | 10 | 309 | 3.2 | 11.3 | 0.00 | 0.00 | 0.00 | 84 | 1015.0 |
| 20260505000047 | 10 | 317 | 4.8 | 11.3 | 0.00 | 0.00 | 0.00 | 85 | 1015.0 |
| 20260504235543 | 10 | 304 | 4.8 | 11.3 | 0.00 | 0.00 | 0.00 | 85 | 1015.0 |
| 20260504235043 | 10 | 336 | 3.2 | 12.9 | 0.00 | 0.00 | 0.00 | 86 | 1015.0 |
| 20260504234548 | 10 | 309 | 4.8 | 12.9 | 0.00 | 0.00 | 0.00 | 86 | 1015.0 |
| 20260504234045 | 10 | 314 | 4.8 | 11.3 | 0.00 | 0.00 | 0.00 | 86 | 1015.0 |
| 20260504233543 | 10 | 306 | 4.8 | 11.3 | 0.00 | 0.00 | 0.00 | 86 | 1015.2 |
| 20260504233107 | 10 | 313 | 3.2 | 6.4 | 0.00 | 0.00 | 0.00 | 87 | 1015.1 |
| 20260504232545 | 9 | 309 | 1.6 | 8.0 | 0.00 | 0.00 | 0.00 | 88 | 1015.1 |
| 20260504232043 | 9 | 315 | 3.2 | 9.7 | 0.00 | 0.00 | 0.00 | 88 | 1015.1 |
| 20260504231552 | 9 | 308 | 4.8 | 14.5 | 0.00 | 0.00 | 0.00 | 88 | 1015.0 |
| 20260504231043 | 9 | 312 | 6.4 | 14.5 | 0.00 | 0.00 | 0.00 | 87 | 1015.2 |
| 20260504230544 | 10 | 306 | 8.0 | 14.5 | 0.00 | 0.00 | 0.00 | 87 | 1015.3 |
| 20260504230054 | 10 | 308 | 8.0 | 14.5 | 0.00 | 0.00 | 0.00 | 87 | 1015.2 |
| 20260504225545 | 10 | 323 | 8.0 | 14.5 | 0.00 | 0.00 | 0.00 | 86 | 1015.2 |
| 20260504225043 | 10 | 319 | 9.7 | 14.5 | 0.00 | 0.00 | 0.00 | 85 | 1015.2 |
| 20260504224558 | 11 | 286 | 8.0 | 14.5 | 0.00 | 0.00 | 0.00 | 85 | 1015.1 |
| 20260504224044 | 11 | 302 | 6.4 | 14.5 | 0.00 | 0.00 | 0.00 | 83 | 1015.1 |
| 20260504223544 | 11 | 292 | 8.0 | 14.5 | 0.00 | 0.00 | 0.00 | 82 | 1015.2 |
| 20260504223055 | 11 | 296 | 4.8 | 11.3 | 0.00 | 0.00 | 0.00 | 83 | 1015.2 |
| 20260504222544 | 11 | 304 | 4.8 | 11.3 | 0.00 | 0.00 | 0.00 | 83 | 1015.2 |
| 20260504222047 | 11 | 287 | 4.8 | 11.3 | 0.00 | 0.00 | 0.00 | 82 | 1015.2 |
| 20260504221552 | 11 | 313 | 3.2 | 11.3 | 0.00 | 0.00 | 0.00 | 84 | 1015.2 |
| 20260504221044 | 11 | 300 | 4.8 | 11.3 | 0.00 | 0.00 | 0.00 | 83 | 1015.2 |
| 20260504220545 | 11 | 290 | 4.8 | 11.3 | 0.00 | 0.00 | 0.00 | 82 | 1015.3 |
| 20260504220054 | 11 | 286 | 3.2 | 8.0 | 0.00 | 0.00 | 0.00 | 84 | 1015.4 |
| 20260504215547 | 10 | 321 | 3.2 | 8.0 | 0.00 | 0.00 | 0.00 | 86 | 1015.5 |
| 20260504215043 | 10 | 316 | 3.2 | 8.0 | 0.00 | 0.00 | 0.00 | 88 | 1015.5 |
| 20260504214556 | 10 | 303 | 4.8 | 11.3 | 0.00 | 0.00 | 0.00 | 88 | 1015.5 |
| 20260504214049 | 10 | 318 | 3.2 | 11.3 | 0.00 | 0.00 | 0.00 | 88 | 1015.6 |
| 20260504213545 | 10 | 304 | 3.2 | 8.0 | 0.00 | 0.00 | 0.00 | 88 | 1015.6 |
| 20260504213052 | 10 | 304 | 3.2 | 8.0 | 0.00 | 0.00 | 0.00 | 88 | 1015.6 |
| 20260504212544 | 10 | 310 | 3.2 | 9.7 | 0.00 | 0.00 | 0.00 | 88 | 1015.5 |
| 20260504212048 | 10 | 303 | 3.2 | 9.7 | 0.00 | 0.00 | 0.00 | 88 | 1015.6 |
| 20260504211550 | 10 | 317 | 4.8 | 11.3 | 0.00 | 0.00 | 0.00 | 87 | 1015.7 |
| 20260504211046 | 10 | 297 | 4.8 | 12.9 | 0.00 | 0.00 | 0.00 | 87 | 1015.7 |
| 20260504210549 | 10 | 311 | 4.8 | 14.5 | 0.00 | 0.00 | 0.00 | 87 | 1015.7 |
| 20260504210105 | 10 | 301 | 8.0 | 14.5 | 0.00 | 0.00 | 0.00 | 87 | 1015.7 |
| 20260504205547 | 10 | 318 | 4.8 | 12.9 | 0.00 | 0.00 | 0.00 | 87 | 1015.7 |
| 20260504205046 | 10 | 298 | 4.8 | 12.9 | 0.00 | 0.00 | 0.00 | 86 | 1015.6 |
| 20260504204557 | 10 | 318 | 6.4 | 12.9 | 0.00 | 0.00 | 0.00 | 85 | 1015.6 |
| 20260504204040 | 10 | 323 | 1.6 | 12.9 | 0.00 | 0.00 | 0.00 | 85 | 1015.6 |
| 20260504203544 | 10 | 306 | 4.8 | 12.9 | 0.00 | 0.00 | 0.00 | 85 | 1015.6 |
| 20260504203105 | 10 | 298 | 6.4 | 12.9 | 0.00 | 0.00 | 0.00 | 85 | 1015.5 |
| 20260504202545 | 10 | 304 | 4.8 | 12.9 | 0.00 | 0.00 | 0.00 | 85 | 1015.6 |
| 20260504202045 | 10 | 305 | 6.4 | 11.3 | 0.00 | 0.00 | 0.00 | 85 | 1015.6 |
| 20260504201549 | 10 | 316 | 3.2 | 11.3 | 0.00 | 0.00 | 0.00 | 84 | 1015.6 |
| 20260504201044 | 10 | 313 | 4.8 | 9.7 | 0.00 | 0.00 | 0.00 | 84 | 1015.7 |
| 20260504200544 | 10 | 312 | 3.2 | 11.3 | 0.00 | 0.00 | 0.00 | 83 | 1015.6 |
| 20260504200053 | 10 | 310 | 6.4 | 11.3 | 0.00 | 0.00 | 0.00 | 82 | 1015.6 |
| 20260504195544 | 11 | 325 | 6.4 | 11.3 | 0.00 | 0.00 | 0.00 | 82 | 1015.6 |
| 20260504195044 | 11 | 316 | 1.6 | 11.3 | 0.00 | 0.00 | 0.00 | 81 | 1015.7 |
| 20260504194600 | 11 | 317 | 3.2 | 6.4 | 0.00 | 0.00 | 0.00 | 80 | 1015.6 |
| 20260504194042 | 11 | 323 | 0.0 | 3.2 | 0.00 | 0.00 | 0.00 | 81 | 1015.7 |
| 20260504193544 | 11 | 323 | 0.0 | 4.8 | 0.00 | 0.00 | 0.00 | 81 | 1015.6 |
| 20260504193053 | 11 | 0 | 0.0 | 4.8 | 0.00 | 0.00 | 0.00 | 81 | 1015.5 |
| 20260504192545 | 11 | 0 | 0.0 | 4.8 | 0.00 | 0.00 | 0.00 | 80 | 1015.6 |
| 20260504192043 | 11 | 323 | 1.6 | 4.8 | 0.00 | 0.00 | 0.00 | 82 | 1015.7 |
| 20260504191551 | 11 | 0 | 0.0 | 8.0 | 0.00 | 0.00 | 0.00 | 82 | 1015.6 |
| 20260504191044 | 11 | 0 | 3.2 | 8.0 | 0.00 | 0.00 | 0.00 | 82 | 1015.6 |
| 20260504190544 | 11 | 0 | 0.0 | 8.0 | 0.00 | 0.00 | 0.00 | 83 | 1015.6 |
| 20260504190121 | 10 | 306 | 0.0 | 6.4 | 0.00 | 0.00 | 0.00 | 85 | 1015.5 |
| 20260504185544 | 10 | 306 | 1.6 | 6.4 | 0.00 | 0.00 | 0.00 | 84 | 1015.6 |
| 20260504185045 | 10 | 321 | 3.2 | 4.8 | 0.00 | 0.00 | 0.00 | 85 | 1015.5 |
| 20260504184553 | 10 | 0 | 0.0 | 4.8 | 0.00 | 0.00 | 0.00 | 84 | 1015.6 |
| 20260504184047 | 10 | 0 | 1.6 | 4.8 | 0.00 | 0.00 | 0.00 | 84 | 1015.6 |
| 20260504183545 | 10 | 322 | 3.2 | 8.0 | 0.00 | 0.00 | 0.00 | 83 | 1015.6 |
| 20260504183051 | 10 | 0 | 3.2 | 8.0 | 0.00 | 0.00 | 0.00 | 82 | 1015.5 |
| 20260504182544 | 11 | 0 | 1.6 | 8.0 | 0.00 | 0.00 | 0.00 | 82 | 1015.6 |
| 20260504182045 | 11 | 329 | 3.2 | 8.0 | 0.00 | 0.00 | 0.00 | 82 | 1015.6 |
| 20260504181555 | 11 | 319 | 1.6 | 6.4 | 0.00 | 0.00 | 0.00 | 81 | 1015.4 |
| 20260504181044 | 11 | 0 | 1.6 | 6.4 | 0.00 | 0.00 | 0.00 | 80 | 1015.4 |
| 20260504180546 | 11 | 0 | 3.2 | 6.4 | 0.00 | 0.00 | 0.00 | 80 | 1015.4 |
| 20260504180052 | 11 | 302 | 1.6 | 6.4 | 0.00 | 0.00 | 0.00 | 80 | 1015.4 |
| 20260504175543 | 11 | 302 | 3.2 | 6.4 | 0.00 | 0.00 | 0.00 | 80 | 1015.1 |
| 20260504175044 | 11 | 268 | 0.0 | 6.4 | 0.00 | 0.00 | 0.00 | 80 | 1015.2 |
| 20260504174559 | 11 | 0 | 0.0 | 0.0 | 0.00 | 0.00 | 0.00 | 79 | 1015.1 |
| 20260504174044 | 11 | 0 | 0.0 | 4.8 | 0.00 | 0.00 | 0.00 | 78 | 1015.1 |
| 20260504173543 | 11 | 0 | 0.0 | 4.8 | 0.00 | 0.00 | 0.00 | 79 | 1015.0 |
| 20260504173052 | 11 | 0 | 0.0 | 4.8 | 0.00 | 0.00 | 0.00 | 76 | 1015.0 |
| 20260504172544 | 11 | 0 | 0.0 | 0.0 | 0.00 | 0.00 | 0.00 | 77 | 1015.0 |
| 20260504172045 | 11 | 0 | 0.0 | 0.0 | 0.00 | 0.00 | 0.00 | 78 | 1014.9 |
| 20260504171551 | 11 | 0 | 0.0 | 0.0 | 0.00 | 0.00 | 0.00 | 78 | 1015.0 |
| 20260504171045 | 11 | 0 | 0.0 | 3.2 | 0.00 | 0.00 | 0.00 | 78 | 1014.8 |
| 20260504170544 | 11 | 0 | 0.0 | 3.2 | 0.00 | 0.00 | 0.00 | 77 | 1014.7 |